| time (UTC) | temp C | wind direction | speed KPH | gust KPH | rain 1hr cm | rain 24hr cm | rain mn cm | humidity % | barometer mb |
| 20260504034516 | 17 | 191 | 6.4 | 20.9 | 0.00 | 0.00 | 0.00 | 55 | 1010.8 |
| 20260504033517 | 17 | 187 | 3.2 | 12.9 | 0.00 | 0.00 | 0.00 | 55 | 1010.9 |
| 20260504032542 | 17 | 179 | 4.8 | 12.9 | 0.00 | 0.00 | 0.00 | 54 | 1011.0 |
| 20260504031522 | 17 | 177 | 1.6 | 9.7 | 0.00 | 0.00 | 0.00 | 55 | 1010.9 |
| 20260504030522 | 17 | 186 | 3.2 | 12.9 | 0.00 | 0.00 | 0.00 | 54 | 1011.1 |
| 20260504025522 | 17 | 206 | 1.6 | 12.9 | 0.00 | 0.00 | 0.00 | 54 | 1011.1 |
| 20260504024522 | 16 | 168 | 1.6 | 9.7 | 0.00 | 0.00 | 0.00 | 54 | 1011.1 |
| 20260504023517 | 16 | 163 | 0.0 | 3.2 | 0.00 | 0.00 | 0.00 | 55 | 1011.0 |
| 20260504022522 | 16 | 167 | 0.0 | 6.4 | 0.00 | 0.00 | 0.00 | 54 | 1011.1 |
| 20260504021522 | 16 | 201 | 0.0 | 4.8 | 0.00 | 0.00 | 0.00 | 55 | 1011.2 |
| 20260504020522 | 16 | 207 | 0.0 | 3.2 | 0.00 | 0.00 | 0.00 | 56 | 1011.1 |
| 20260504015522 | 16 | 207 | 0.0 | 3.2 | 0.00 | 0.00 | 0.00 | 56 | 1011.1 |
| 20260504014522 | 17 | 0.0 | 1.6 | 0.00 | 0.00 | 0.00 | 53 | 1011.1 | |
| 20260504013522 | 17 | 207 | 0.0 | 4.8 | 0.00 | 0.00 | 0.00 | 50 | 1011.1 |
| 20260504012537 | 17 | 186 | 1.6 | 9.7 | 0.00 | 0.00 | 0.00 | 48 | 1011.1 |
| 20260504011542 | 18 | 168 | 0.0 | 8.0 | 0.00 | 0.00 | 0.00 | 47 | 1011.1 |
| 20260504010522 | 18 | 165 | 1.6 | 8.0 | 0.00 | 0.00 | 0.00 | 45 | 1011.2 |
| 20260504005522 | 18 | 190 | 3.2 | 11.3 | 0.00 | 0.00 | 0.00 | 44 | 1011.2 |
| 20260504004522 | 18 | 167 | 3.2 | 16.1 | 0.00 | 0.00 | 0.00 | 44 | 1011.2 |
| 20260504003522 | 19 | 184 | 1.6 | 11.3 | 0.00 | 0.00 | 0.00 | 43 | 1011.1 |
| 20260504002516 | 20 | 190 | 3.2 | 16.1 | 0.00 | 0.00 | 0.00 | 42 | 1011.0 |
| 20260504001537 | 20 | 192 | 3.2 | 17.7 | 0.00 | 0.00 | 0.00 | 43 | 1011.0 |
| 20260504000522 | 20 | 171 | 6.4 | 17.7 | 0.00 | 0.00 | 0.00 | 41 | 1011.0 |
| 20260503235522 | 20 | 179 | 4.8 | 19.3 | 0.00 | 0.00 | 0.00 | 41 | 1011.0 |
| 20260503234523 | 20 | 176 | 6.4 | 20.9 | 0.00 | 0.00 | 0.00 | 40 | 1010.9 |
| 20260503233520 | 20 | 181 | 8.0 | 22.5 | 0.00 | 0.00 | 0.00 | 39 | 1011.1 |
| 20260503232542 | 21 | 192 | 6.4 | 16.1 | 0.00 | 0.00 | 0.00 | 38 | 1011.2 |
| 20260503231536 | 21 | 185 | 8.0 | 27.4 | 0.00 | 0.00 | 0.00 | 37 | 1011.1 |
| 20260503230522 | 21 | 186 | 9.7 | 32.2 | 0.00 | 0.00 | 0.00 | 37 | 1011.2 |
| 20260503225522 | 21 | 171 | 6.4 | 24.1 | 0.00 | 0.00 | 0.00 | 38 | 1011.2 |
| 20260503224522 | 21 | 181 | 8.0 | 22.5 | 0.00 | 0.00 | 0.00 | 38 | 1011.4 |
| 20260503223522 | 21 | 171 | 4.8 | 20.9 | 0.00 | 0.00 | 0.00 | 40 | 1011.4 |
| 20260503222522 | 21 | 187 | 8.0 | 24.1 | 0.00 | 0.00 | 0.00 | 39 | 1011.7 |
| 20260503221517 | 21 | 177 | 8.0 | 20.9 | 0.00 | 0.00 | 0.00 | 38 | 1011.7 |
| 20260503220516 | 21 | 185 | 8.0 | 22.5 | 0.00 | 0.00 | 0.00 | 39 | 1011.8 |
| 20260503215521 | 21 | 179 | 6.4 | 22.5 | 0.00 | 0.00 | 0.00 | 39 | 1012.0 |
| 20260503214522 | 21 | 187 | 8.0 | 25.7 | 0.00 | 0.00 | 0.00 | 37 | 1012.0 |
| 20260503213522 | 21 | 187 | 8.0 | 22.5 | 0.00 | 0.00 | 0.00 | 39 | 1012.2 |
| 20260503212522 | 21 | 166 | 6.4 | 20.9 | 0.00 | 0.00 | 0.00 | 38 | 1012.5 |
| 20260503211542 | 21 | 184 | 6.4 | 22.5 | 0.00 | 0.00 | 0.00 | 38 | 1012.9 |
| 20260503210517 | 21 | 168 | 6.4 | 24.1 | 0.00 | 0.00 | 0.00 | 39 | 1013.2 |
| 20260503205521 | 21 | 199 | 11.3 | 29.0 | 0.00 | 0.00 | 0.00 | 37 | 1013.5 |
| 20260503204522 | 21 | 174 | 4.8 | 22.5 | 0.00 | 0.00 | 0.00 | 40 | 1013.6 |
| 20260503203522 | 21 | 189 | 6.4 | 20.9 | 0.00 | 0.00 | 0.00 | 40 | 1013.8 |
| 20260503202602 | 21 | 189 | 6.4 | 17.7 | 0.00 | 0.00 | 0.00 | 38 | 1014.1 |
| 20260503201522 | 21 | 212 | 11.3 | 25.7 | 0.00 | 0.03 | 0.00 | 40 | 1014.6 |
| 20260503200522 | 20 | 176 | 8.0 | 24.1 | 0.00 | 0.03 | 0.00 | 39 | 1014.8 |
| 20260503195517 | 21 | 199 | 9.7 | 29.0 | 0.00 | 0.03 | 0.00 | 38 | 1015.2 |
| 20260503194522 | 21 | 214 | 9.7 | 22.5 | 0.00 | 0.08 | 0.00 | 37 | 1015.5 |
| 20260503193522 | 20 | 225 | 11.3 | 24.1 | 0.00 | 0.08 | 0.00 | 38 | 1015.7 |
| 20260503192542 | 20 | 187 | 8.0 | 20.9 | 0.00 | 0.08 | 0.00 | 40 | 1015.8 |
| 20260503191542 | 20 | 194 | 11.3 | 22.5 | 0.00 | 0.08 | 0.00 | 38 | 1016.2 |
| 20260503190522 | 20 | 199 | 11.3 | 25.7 | 0.00 | 0.08 | 0.00 | 40 | 1016.4 |
| 20260503185537 | 20 | 178 | 6.4 | 19.3 | 0.00 | 0.08 | 0.00 | 43 | 1016.5 |
| 20260503184517 | 20 | 186 | 9.7 | 22.5 | 0.00 | 0.08 | 0.00 | 42 | 1016.7 |
| 20260503183521 | 20 | 197 | 6.4 | 19.3 | 0.00 | 0.08 | 0.00 | 41 | 1016.9 |
| 20260503182542 | 20 | 198 | 9.7 | 22.5 | 0.00 | 0.08 | 0.00 | 42 | 1017.1 |
| 20260503181521 | 20 | 228 | 9.7 | 20.9 | 0.00 | 0.08 | 0.00 | 44 | 1017.4 |
| 20260503180521 | 19 | 198 | 6.4 | 20.9 | 0.00 | 0.08 | 0.00 | 47 | 1017.5 |
| 20260503175522 | 18 | 186 | 8.0 | 22.5 | 0.00 | 0.08 | 0.00 | 48 | 1017.7 |
| 20260503174516 | 18 | 177 | 6.4 | 19.3 | 0.00 | 0.08 | 0.00 | 46 | 1018.0 |
| 20260503173542 | 17 | 173 | 6.4 | 19.3 | 0.00 | 0.08 | 0.00 | 48 | 1018.1 |
| 20260503172522 | 17 | 177 | 8.0 | 25.7 | 0.00 | 0.08 | 0.00 | 45 | 1018.4 |
| 20260503171522 | 17 | 185 | 8.0 | 20.9 | 0.00 | 0.08 | 0.00 | 48 | 1018.7 |
| 20260503170521 | 17 | 168 | 6.4 | 22.5 | 0.00 | 0.08 | 0.00 | 47 | 1019.0 |
| 20260503150522 | 13 | 183 | 8.0 | 19.3 | 0.00 | 0.08 | 0.00 | 57 | 1019.7 |
| 20260503130521 | 9 | 182 | 1.6 | 9.7 | 0.00 | 0.08 | 0.00 | 84 | 1020.0 |
| 20260503110516 | 5 | 0.0 | 0.0 | 0.00 | 0.08 | 0.00 | 92 | 1019.7 | |
| 20260503081521 | 5 | 0.0 | 0.0 | 0.00 | 0.08 | 0.00 | 92 | 1019.6 | |
| 20260503080521 | 5 | 0.0 | 0.0 | 0.00 | 0.08 | 0.00 | 92 | 1019.5 | |
| 20260503072521 | 5 | 0.0 | 0.0 | 0.00 | 0.08 | 0.00 | 92 | 1019.8 | |
| 20260503071521 | 5 | 0.0 | 0.0 | 0.00 | 0.08 | 0.00 | 92 | 1019.9 | |
| 20260503070522 | 6 | 0.0 | 0.0 | 0.00 | 0.08 | 0.00 | 92 | 1019.8 | |
| 20260503054521 | 6 | 0.0 | 0.0 | 0.00 | 0.08 | 0.00 | 91 | 1020.0 | |
| 20260503053521 | 6 | 0.0 | 0.0 | 0.00 | 0.08 | 0.00 | 91 | 1020.0 | |
| 20260503052516 | 6 | 0.0 | 0.0 | 0.00 | 0.08 | 0.00 | 91 | 1020.0 | |
| 20260503051521 | 6 | 0.0 | 0.0 | 0.00 | 0.08 | 0.00 | 91 | 1020.0 | |
| 20260503050541 | 6 | 0.0 | 0.0 | 0.00 | 0.08 | 0.00 | 90 | 1019.9 | |
| 20260503045542 | 6 | 0.0 | 0.0 | 0.00 | 0.08 | 0.08 | 90 | 1020.0 | |
| 20260503044522 | 6 | 0.0 | 0.0 | 0.00 | 0.08 | 0.08 | 90 | 1019.8 | |
| 20260503043542 | 6 | 0.0 | 0.0 | 0.00 | 0.08 | 0.08 | 90 | 1019.7 | |
| 20260503042522 | 6 | 0.0 | 0.0 | 0.00 | 0.08 | 0.08 | 89 | 1019.6 | |
| 20260503041522 | 6 | 0.0 | 0.0 | 0.00 | 0.08 | 0.08 | 88 | 1019.6 | |
| 20260503040517 | 7 | 0.0 | 0.0 | 0.00 | 0.08 | 0.08 | 88 | 1019.6 | |
| 20260503035517 | 7 | 0.0 | 0.0 | 0.00 | 0.08 | 0.08 | 87 | 1019.6 |